Location: ?ernice
(48.8383°N, 14.3803°E)
Time: 17:38:12
(UTC+00:00)

SL-8 R/B - Pass Details

Date: 23 May 2024
Orbit: 652 x 662 km, 48.4° (Epoch: 13 June)

Event Time Altitude Azimuth Distance (km) Brightness Sun altitude
Rises 00:59:24 0° 284° (WNW) 2,978 6.9 -15.5°
Reaches altitude 10° 01:01:53 10° 275° (W) 2,066 6.0 -15.3°
Maximum altitude 01:06:11 34° 211° (SSW) 1,074 4.2 -15.0°
Drops below altitude 10° 01:10:29 10° 147° (SSE) 2,064 6.0 -14.6°
Sets 01:12:58 0° 138° (SE) 2,975 6.9 -14.4°
